Miscellaneous Local Product
Issued by NWS North Platte, NE

Home | Current Version | Previous Version | Graphics & Text | Print | Product List | Glossary On
Versions: 1 2 3 4 5 6 7 8 9 10 11 12 13 14 15 16 17 18 19 20 21 22 23 24 25 26 27 28 29 30 31 32 33 34 35 36 37 38 39 40 41 42 43 44 45 46 47 48 49 50
163
AXUS43 KLBF 240410
MISLBF


WESTERN AND NORTH CENTRAL NEBRASKA HOURLY WEATHER ROUNDUP
NATIONAL WEATHER SERVICE NORTH PLATTE NE
1100 PM CDT TUE MAY 23 2017

NOTE: "FAIR" INDICATES FEW OR NO CLOUDS BELOW 12,000 FEET WITH NO
SIGNIFICANT WEATHER AND/OR OBSTRUCTIONS TO VISIBILITY.

NOTE: STATIONS NOT REPORTING VARIABLES SUCH AS SKY/WEATHER OR
PRESSURE ARE PROVIDED BY RAWS AND APRS NETWORKS AND ARE NOT UNDER
NATIONAL WEATHER SERVICE QUALITY CONTROL.

...OBSERVATIONS IN AND NEAR THE EASTERN PANHANDLE OF NEBRASKA...

CITY           SKY/WX    TMP DP  RH WIND       PRES   REMARKS
PINE RIDGE     CLEAR     45  38  76 CALM      30.02R
GORDON         FAIR      42  36  80 E9        30.01F
CHADRON        CLEAR     45  38  76 CALM      30.02S
ALLIANCE       CLEAR     42  36  79 NE6       30.02F
SIDNEY         CLEAR     41  35  79 N6        30.05S
CRESCENT LAKE    N/A     44  35  72 NE6         N/A
$$

...OBSERVATIONS IN NORTHERN NEBRASKA AND FAR SOUTHERN SOUTH DAKOTA...

CITY           SKY/WX    TMP DP  RH WIND       PRES   REMARKS
WINNER         FAIR      48  40  73 N7        29.98S
VALENTINE      CLEAR     40  34  79 NW5       30.00S
THEDFORD       CLEAR     43  38  83 NW5       30.02R
AINSWORTH      CLOUDY    49  42  78 NW9       29.99S
O`NEILL        CLOUDY    50  43  77 NW9       29.96S
ORD            CLOUDY    50  40  68 N15       29.95R
BROKEN BOW     CLOUDY    50  42  74 N14       29.97R
VALENTINE NWR    N/A     44  38  78 N6          N/A
HALSEY           N/A     47  39  74 NW7         N/A
BUTTE            N/A     47  43  85 NW3         N/A
CHAMBERS         N/A     49  42  78 CALM        N/A
EWING            N/A     49  45  85 N9          N/A
$$

...OBSERVATIONS IN SOUTHWEST NEBRASKA AND FAR NORTHEAST COLORADO...

CITY           SKY/WX    TMP DP  RH WIND       PRES   REMARKS
WRAY           FAIR      45  36  70 N5        30.05R
IMPERIAL       CLEAR     43  37  79 N7        30.02R
OGALLALA       CLEAR     45  37  71 N3        30.02S
NORTH PLATTE   CLEAR     48  38  68 N12       30.00R
MCCOOK         CLEAR     46  37  71 N10       29.99S
LEXINGTON      CLEAR     44  39  83 NW6       29.97S
STAPLETON        N/A     42  37  84 CALM        N/A
GOTHENBURG       N/A     50  37  59 NW7         N/A
CALLAWAY         N/A     47  40  77 N9          N/A
$$

...OBSERVATIONS IN CENTRAL LINCOLN COUNTY AREA...

CITY           SKY/WX    TMP DP  RH WIND       PRES   REMARKS
N.P. AIRPORT   CLEAR     48  38  68 N12       30.00R
N.P. DOWNTOWN    N/A     46  38  73 NW3         N/A
N.P. SOUTHEAST   N/A     48  39  70 N3          N/A
N.P. HILLCREST   N/A     45  38  77 N9          N/A
$$

...SOME OBSERVATIONS FROM AROUND THE REGION...

CITY           SKY/WX    TMP DP  RH WIND       PRES   REMARKS
DENVER         CLOUDY    50  35  56 E5        30.12R
LIMON          CLEAR     34  32  92 N3        30.10R
ASPEN          CLOUDY    42  27  55 S3        30.24R
LARAMIE        CLOUDY    43  31  62 CALM      30.14S
CASPER         CLOUDY    45  41  86 CALM      30.03F
CHEYENNE       CLOUDY    46  32  58 NW5       30.11S
SCOTTSBLUFF    CLOUDY    47  38  71 CALM      30.04S
GRAND ISLAND   CLOUDY    50  43  77 N14       29.93S
OMAHA          CLOUDY    50  45  83 NW10      29.83S
SIOUX FALLS    CLOUDY    51  47  86 N10       29.88S
PIERRE         CLEAR     45  37  73 N6        29.97S
RAPID CITY     PTCLDY    44  35  70 SE3       30.01R
BISMARCK       CLOUDY    48  37  65 SE3       29.97F
KANSAS CITY    MOCLDY    53  47  79 NW7       29.79F
HILL CITY      CLEAR     44  39  82 NW5       29.98R
WICHITA        MOCLDY    56  46  69 NW13      29.89S
DODGE CITY     CLEAR     46  39  76 N7        29.99R
OKLAHOMA CITY  PTCLDY    58  45  62 N8        29.90R
DALLAS         CLEAR     63  52  67 W13       29.90S
AMARILLO       CLEAR     50  35  56 NW7       30.05S
$$




USA.gov is the U.S. government's official web portal to all federal, state and local government web resources and services.